Time,TemperatureF,DewpointF,PressureIn,WindDirection,WindDirectionDegrees,WindSpeedMPH,WindSpeedGustMPH,Humidity,HourlyPrecipIn,Conditions,Clouds,dailyrainin,SoftwareType,DateUTC
2013-03-22 00:03:00,38.0,-99.9,-100.00,WNW,303,15.0,22.0,-999,-99.99,,,-99.99,,2013-03-22 07:03:00,
2013-03-22 00:12:00,38.0,-99.9,-100.00,WNW,303,15.0,22.0,-999,-99.99,,,-99.99,,2013-03-22 07:12:00,
2013-03-22 01:03:00,39.0,-99.9,-100.00,WNW,293,14.0,23.0,-999,-99.99,,,-99.99,,2013-03-22 08:03:00,
2013-03-22 01:13:00,39.0,-99.9,-100.00,WNW,293,14.0,23.0,-999,-99.99,,,-99.99,,2013-03-22 08:13:00,
2013-03-22 02:03:00,39.0,-99.9,-100.00,WNW,291,13.0,23.0,-999,-99.99,,,-99.99,,2013-03-22 09:03:00,
2013-03-22 02:12:00,39.0,-99.9,-100.00,WNW,291,13.0,23.0,-999,-99.99,,,-99.99,,2013-03-22 09:12:00,
2013-03-22 03:04:00,37.0,-99.9,-100.00,WNW,299,12.0,18.0,-999,-99.99,,,-99.99,,2013-03-22 10:04:00,
2013-03-22 03:12:00,37.0,-99.9,-100.00,WNW,299,12.0,18.0,-999,-99.99,,,-99.99,,2013-03-22 10:12:00,
2013-03-22 04:03:00,37.0,-99.9,-100.00,WNW,292,13.0,20.0,-999,-99.99,,,-99.99,,2013-03-22 11:03:00,
2013-03-22 04:12:00,37.0,-99.9,-100.00,WNW,292,13.0,20.0,-999,-99.99,,,-99.99,,2013-03-22 11:12:00,
2013-03-22 05:02:00,35.0,-99.9,-100.00,WNW,300,10.0,14.0,-999,-99.99,,,-99.99,,2013-03-22 12:02:00,
2013-03-22 05:12:00,35.0,-99.9,-100.00,WNW,300,10.0,14.0,-999,-99.99,,,-99.99,,2013-03-22 12:12:00,
2013-03-22 06:02:00,35.0,-99.9,-100.00,WNW,295,12.0,20.0,-999,-99.99,,,-99.99,,2013-03-22 13:02:00,
2013-03-22 06:13:00,35.0,-99.9,-100.00,WNW,295,12.0,20.0,-999,-99.99,,,-99.99,,2013-03-22 13:13:00,
2013-03-22 07:03:00,34.0,-99.9,-100.00,WNW,299,12.0,17.0,-999,-99.99,,,-99.99,,2013-03-22 14:03:00,
2013-03-22 07:12:00,34.0,-99.9,-100.00,WNW,299,12.0,17.0,-999,-99.99,,,-99.99,,2013-03-22 14:12:00,
2013-03-22 08:03:00,29.0,-99.9,-100.00,SE,137,6.0,9.0,-999,-99.99,,,-99.99,,2013-03-22 15:03:00,
2013-03-22 08:12:00,29.0,-99.9,-100.00,SE,137,6.0,9.0,-999,-99.99,,,-99.99,,2013-03-22 15:12:00,
2013-03-22 09:03:00,38.0,-99.9,-100.00,WNW,303,8.0,14.0,-999,-99.99,,,-99.99,,2013-03-22 16:03:00,
2013-03-22 09:13:00,38.0,-99.9,-100.00,WNW,303,8.0,14.0,-999,-99.99,,,-99.99,,2013-03-22 16:13:00,
2013-03-22 10:03:00,42.0,-99.9,-100.00,WNW,303,13.0,18.0,-999,-99.99,,,-99.99,,2013-03-22 17:03:00,
2013-03-22 10:12:00,42.0,-99.9,-100.00,WNW,303,13.0,18.0,-999,-99.99,,,-99.99,,2013-03-22 17:12:00,
2013-03-22 11:02:00,45.0,-99.9,-100.00,WNW,295,12.0,18.0,-999,-99.99,,,-99.99,,2013-03-22 18:02:00,
2013-03-22 11:12:00,45.0,-99.9,-100.00,WNW,295,12.0,18.0,-999,-99.99,,,-99.99,,2013-03-22 18:12:00,
2013-03-22 12:02:00,47.0,-99.9,-100.00,NNW,330,8.0,16.0,-999,-99.99,,,-99.99,,2013-03-22 19:02:00,
2013-03-22 12:12:00,47.0,-99.9,-100.00,NNW,330,8.0,16.0,-999,-99.99,,,-99.99,,2013-03-22 19:12:00,
2013-03-22 13:02:00,48.0,-99.9,-100.00,West,269,7.0,14.0,-999,-99.99,,,-99.99,,2013-03-22 20:02:00,
2013-03-22 13:13:00,48.0,-99.9,-100.00,West,269,7.0,14.0,-999,-99.99,,,-99.99,,2013-03-22 20:13:00,
2013-03-22 14:03:00,50.0,-99.9,-100.00,West,269,8.0,17.0,-999,-99.99,,,-99.99,,2013-03-22 21:03:00,
2013-03-22 14:12:00,50.0,-99.9,-100.00,West,269,8.0,17.0,-999,-99.99,,,-99.99,,2013-03-22 21:12:00,
2013-03-22 15:03:00,50.0,-99.9,-100.00,West,281,9.0,16.0,-999,-99.99,,,-99.99,,2013-03-22 22:03:00,
2013-03-22 15:13:00,50.0,-99.9,-100.00,West,281,9.0,16.0,-999,-99.99,,,-99.99,,2013-03-22 22:13:00,
2013-03-22 16:02:00,51.0,-99.9,-100.00,NW,324,8.0,20.0,-999,-99.99,,,-99.99,,2013-03-22 23:02:00,
2013-03-22 16:12:00,51.0,-99.9,-100.00,NW,324,8.0,20.0,-999,-99.99,,,-99.99,,2013-03-22 23:12:00,
2013-03-22 17:02:00,52.0,-99.9,-100.00,WNW,291,12.0,18.0,-999,-99.99,,,-99.99,,2013-03-23 00:02:00,
2013-03-22 17:12:00,52.0,-99.9,-100.00,WNW,291,12.0,18.0,-999,-99.99,,,-99.99,,2013-03-23 00:12:00,
2013-03-22 18:03:00,49.0,-99.9,-100.00,WNW,299,20.0,32.0,-999,-99.99,,,-99.99,,2013-03-23 01:03:00,
2013-03-22 18:12:00,49.0,-99.9,-100.00,WNW,299,20.0,32.0,-999,-99.99,,,-99.99,,2013-03-23 01:12:00,
2013-03-22 19:02:00,46.0,-99.9,-100.00,NW,309,17.0,27.0,-999,-99.99,,,-99.99,,2013-03-23 02:02:00,
2013-03-22 19:13:00,46.0,-99.9,-100.00,NW,309,17.0,27.0,-999,-99.99,,,-99.99,,2013-03-23 02:13:00,
2013-03-22 20:03:00,43.0,-99.9,-100.00,WNW,301,12.0,20.0,-999,-99.99,,,-99.99,,2013-03-23 03:03:00,
2013-03-22 20:12:00,43.0,-99.9,-100.00,WNW,301,12.0,20.0,-999,-99.99,,,-99.99,,2013-03-23 03:12:00,
2013-03-22 21:03:00,35.0,-99.9,-100.00,West,272,8.0,9.0,-999,-99.99,,,-99.99,,2013-03-23 04:03:00,
2013-03-22 21:13:00,35.0,-99.9,-100.00,West,272,8.0,9.0,-999,-99.99,,,-99.99,,2013-03-23 04:13:00,
2013-03-22 22:02:00,36.0,-99.9,-100.00,WNW,290,9.0,13.0,-999,-99.99,,,-99.99,,2013-03-23 05:02:00,
2013-03-22 22:12:00,36.0,-99.9,-100.00,WNW,290,9.0,13.0,-999,-99.99,,,-99.99,,2013-03-23 05:12:00,
2013-03-22 23:02:00,37.0,-99.9,-100.00,WNW,292,12.0,17.0,-999,-99.99,,,-99.99,,2013-03-23 06:02:00,
2013-03-22 23:12:00,37.0,-99.9,-100.00,WNW,292,12.0,17.0,-999,-99.99,,,-99.99,,2013-03-23 06:12:00,